STOCKHOLM / BROMMA current weather conditions

sailwx.info

Wind from 160 at 9 knots

Air temperature 9.0° C
Visibility: greater than 2.4 NM
Dewpoint 8.0° C
Present weather: Light drizzle. Mist.

Last reported at 2014-Oct-24 14:20 UTC.
Time now 2014-Oct-24 16:18 UTC

Location: N 59°21' E 017°57'.
View on Google Maps.

See reports from other nearby stations

  
Tides and Currents Weather Stations Pressure Air Temp Water Temp Dewpoint Dewpoint Depression Visibility Wind Speed Wind Dir Waves Ship Positions
date/time (UTC)wind fromknots sea level pressurealtimeterstation pressurevisibilityair tempwater tempwave heightnotes
2014-Oct-24 15:20 160 11 2.4 9.0 Light rain. Mist.
2014-Oct-24 14:50 150 11 2.7 9.0 Mist.
2014-Oct-24 14:20 160 9 2.4 9.0 Light drizzle. Mist.
2014-Oct-24 13:50 150 10 2.2 9.0 Light drizzle. Mist.
2014-Oct-24 13:20 150 11 2.2 8.0 Light drizzle. Mist.
2014-Oct-24 12:50 150 13 2.7 8.0 Light drizzle. Mist.
2014-Oct-24 12:20 160 10 4.3 8.0 Mist.
2014-Oct-24 11:50 160 12 3.2 8.0 Light rain. Mist.
2014-Oct-24 11:20 150 9 gusting 19 3.8 8.0 Mist.
2014-Oct-24 10:50 150 13 3.8 8.0 Mist.
2014-Oct-24 10:20 150 14 4.3 8.0 Light drizzle. Mist.
2014-Oct-24 09:50 150 13 gusting 23 3.8 8.0 Light. Drizzle. Mist.
2014-Oct-24 09:20 150 13 4.9 8.0 Mist.
2014-Oct-24 08:50 150 14 5.4 8.0 Light drizzle.
2014-Oct-24 08:20 150 14 5.4 8.0 Light drizzle.
2014-Oct-24 07:50 150 12 5.4 8.0 Light drizzle.
2014-Oct-24 07:20 140 11 5.4 7.0 Light rain.
2014-Oct-24 06:50 150 11 5.4 7.0 Light rain.
2014-Oct-24 06:20 150 11 5.4 7.0 Light rain.
2014-Oct-24 05:50 150 15 5.4 7.0 Light rain.
2014-Oct-24 05:20 150 13 5.4 7.0 Light drizzle.
2014-Oct-24 04:50 150 13 5.4 7.0 Light rain.
2014-Oct-24 04:20 150 13 5.4 7.0
2014-Oct-24 03:50 150 13 5.4 7.0
2014-Oct-24 03:20 150 13 5.4 7.0
2014-Oct-24 02:50 150 13 5.4 7.0
2014-Oct-24 02:20 150 11 5.4 7.0
2014-Oct-24 01:50 140 11 5.4 6.0
2014-Oct-24 01:20 140 12 5.4 6.0
2014-Oct-24 00:50 140 12 5.4 6.0
2014-Oct-24 00:20 140 13 5.4 6.0
2014-Oct-23 23:50 140 12 5.4 6.0
2014-Oct-23 23:20 150 10 5.4 6.0
2014-Oct-23 22:50 150 13 5.4 6.0
2014-Oct-23 22:20 160 10 5.4 5.0
2014-Oct-23 21:50 160 10 5.4 5.0
2014-Oct-23 21:20 150 8 5.4 5.0
2014-Oct-23 20:50 150 9 5.4 5.0
2014-Oct-23 20:20 150 8 5.4 5.0
2014-Oct-23 19:50 140 10 5.4 5.0
2014-Oct-23 19:20 150 12 5.4 5.0
2014-Oct-23 18:50 150 10 5.4 5.0
2014-Oct-23 18:20 140 12 5.4 5.0
2014-Oct-23 17:50 140 12 5.4 5.0
2014-Oct-23 17:20 140 12 5.0
2014-Oct-23 16:50 140 13 5.0
2014-Oct-23 16:20 140 12 4.0
2014-Oct-23 15:50 150 12 5.4 4.0
2014-Oct-23 15:20 140 12 5.4 5.0
2014-Oct-23 14:50 130 12 5.4 5.0
2014-Oct-23 14:20 130 15 5.4 5.0
2014-Oct-23 13:50 140 15 5.4 5.0
2014-Oct-23 13:20 140 15 5.4 5.0
2014-Oct-23 12:50 140 14 5.4 6.0
2014-Oct-23 12:20 140 14 5.4 5.0
2014-Oct-23 11:50 140 16 5.4 5.0
2014-Oct-23 11:20 140 15 5.4 5.0
2014-Oct-23 10:50 150 14 5.4 5.0
2014-Oct-23 10:20 140 13 5.4 5.0
2014-Oct-23 09:50 140 13 5.4 6.0
2014-Oct-23 09:20 150 12 5.4 5.0
2014-Oct-23 08:50 120 14 5.4 5.0
2014-Oct-23 08:20 120 13 5.4 5.0
2014-Oct-23 07:50 120 13 5.4 5.0
2014-Oct-23 07:20 110 13 5.4 5.0
2014-Oct-23 06:50 110 13 5.4 4.0
2014-Oct-23 06:20 110 12 5.4 4.0
2014-Oct-23 05:50 110 13 5.4 4.0
2014-Oct-23 05:20 110 10 5.4 4.0
2014-Oct-23 04:50 110 11 5.4 4.0
2014-Oct-23 04:20 100 9 5.4 4.0
2014-Oct-23 03:50 090 9 5.4 4.0
2014-Oct-23 03:20 090 10 5.4 4.0
2014-Oct-23 02:50 090 8 5.4 4.0
2014-Oct-23 02:20 090 10 5.4 4.0
2014-Oct-23 01:50 090 10 5.4 3.0
2014-Oct-23 01:20 100 11 5.4 3.0
2014-Oct-23 00:50 090 9 5.4 4.0
2014-Oct-23 00:20 090 9 5.4 4.0
2014-Oct-22 23:50 090 9 5.4 4.0
2014-Oct-22 23:20 100 9 5.4 4.0
2014-Oct-22 22:50 110 10 5.4 4.0
2014-Oct-22 22:20 120 12 5.4 4.0
2014-Oct-22 21:50 100 9 5.4 4.0 Light drizzle.
2014-Oct-22 21:20 080 7 5.4 4.0
2014-Oct-22 20:50 080 8 5.4 4.0
2014-Oct-22 20:20 090 10 5.4 4.0
2014-Oct-22 19:50 090 9 5.4 4.0
2014-Oct-22 19:20 100 10 5.4 4.0
2014-Oct-22 18:50 100 9 5.4 4.0
2014-Oct-22 18:20 090 8 5.4 4.0
2014-Oct-22 17:50 100 10 5.4 4.0
2014-Oct-22 17:20 090 9 5.4 4.0
2014-Oct-22 16:50 080 9 5.4 4.0
2014-Oct-22 16:20 070 10 5.4 4.0